Flag for Trinidad and Tobago Weather past 2 weeks in Port of Spain, Trinidad and Tobago

Now
79 °F

Passing clouds.


Feels Like: 82 °F
Forecast: 76 / 82 °F
Wind: 6 mph from East

Location: Piarco International Airport - Trinidad

Current Time: Dec 25, 2014 at 9:06:49 PM

Latest Report: Dec 25, 2014 at 8:00 PM


Visibility: N/A

Pressure: 29.92 "Hg

Humidity: 79%

Dew point: 72 °F

Location of Port of SpainLocation

Historic Weather in Port of Spain — Graph

°F

Port of Spain temperature yesterday

Maximum temperature yesterday: 90 °F (at 12:00 PM)
Minimum temperature yesterday: 75 °F (at 5:00 AM)
Average temperature yesterday: 82 °F

Past Weeks' High & Low Weather Summary

 TemperatureHumidityPressure
High91 °F (Dec 12, 12:00 PM)100% (Dec 14, 4:00 AM)30.01 "Hg (Dec 14, 4:00 AM)
Low72 °F (Dec 13, 5:00 AM)46% (Dec 25, 2:00 PM)29.80 "Hg (Dec 13, 3:00 PM)
Average80 °F78%29.90 "Hg
* Reported Dec 10 8:00 PM — Dec 25 8:00 PM, Port of Spain, Weather by CustomWeather, © 2014

Note: Actual official high and low records may vary slightly from our data, if they occured in-between our weather recording intervals... More about our weather records

Advertising

Port of Spain weather history for previous 24 hours

 ConditionsComfort  
Time TempWeatherWind HumidityBarometerVisibility
8:00 PM
Dec 25
79 °FPassing clouds.6 mph79%29.92 "HgN/A
7:00 PM81 °FPassing clouds.6 mph79%29.92 "HgN/A
6:00 PM81 °FPassing clouds.9 mph74%29.89 "HgN/A
5:00 PM84 °FPassing clouds.14 mph66%29.89 "HgN/A
4:00 PM86 °FScattered clouds.16 mph62%29.89 "HgN/A
3:00 PM88 °FScattered clouds.16 mph55%29.89 "HgN/A
2:00 PM90 °FScattered clouds.15 mph46%29.92 "HgN/A
1:00 PM90 °FPassing clouds.13 mph52%29.95 "HgN/A
12:00 PM88 °FPassing clouds.12 mph55%29.95 "HgN/A
11:00 AM88 °FPassing clouds.12 mph55%29.98 "HgN/A
10:00 AM86 °FPassing clouds.12 mph62%29.98 "HgN/A
9:00 AM86 °FScattered clouds.9 mph62%29.98 "HgN/A
8:00 AM81 °FPassing clouds.No wind79%29.95 "HgN/A
7:00 AM77 °FPassing clouds.6 mph89%29.95 "HgN/A
6:00 AM75 °FPassing clouds.No wind89%29.92 "HgN/A
5:00 AM75 °FPassing clouds.No wind89%29.83 "HgN/A
4:00 AM77 °FScattered showers. Passing clouds.8 mph83%29.89 "HgN/A
3:00 AM77 °FPassing clouds.No wind94%29.89 "HgN/A
2:00 AM77 °FPassing clouds.No wind83%29.89 "HgN/A
1:00 AM77 °FPassing clouds.No wind89%29.92 "HgN/A
12:00 AM77 °FSprinkles. Passing clouds.No wind89%29.92 "HgN/A
11:00 PM
Dec 24
77 °FPassing clouds.No wind83%29.92 "HgN/A
10:00 PM77 °FPassing clouds.No wind89%29.92 "HgN/A
9:00 PM79 °FPassing clouds.No wind79%29.92 "HgN/A
Weather by CustomWeather, © 2014

See weather overviewHow to use our weather pages